Time,TemperatureF,DewpointF,PressureIn,WindDirection,WindDirectionDegrees,WindSpeedMPH,WindSpeedGustMPH,Humidity,HourlyPrecipIn,Conditions,Clouds,dailyrainin,SoftwareType,DateUTC
2013-01-11 00:02:00,43.0,34.0,30.20,West,279,2.0,-999.0,70,-99.99,,,-99.99,,2013-01-11 08:02:00,
2013-01-11 00:11:00,43.0,34.0,30.20,West,276,3.0,-999.0,71,-99.99,,,-99.99,,2013-01-11 08:11:00,
2013-01-11 00:22:00,43.0,34.0,30.20,West,276,3.0,-999.0,71,-99.99,,,-99.99,,2013-01-11 08:22:00,
2013-01-11 00:32:00,43.0,34.0,30.20,NNW,331,2.0,-999.0,71,-99.99,,,-99.99,,2013-01-11 08:32:00,
2013-01-11 00:42:00,43.0,34.0,30.20,NNW,331,2.0,-999.0,71,-99.99,,,-99.99,,2013-01-11 08:42:00,
2013-01-11 00:52:00,43.0,33.0,30.20,West,280,3.0,-999.0,68,-99.99,,,-99.99,,2013-01-11 08:52:00,
2013-01-11 01:02:00,43.0,34.0,30.20,West,281,3.0,-999.0,71,-99.99,,,-99.99,,2013-01-11 09:02:00,
2013-01-11 01:11:00,43.0,34.0,30.20,West,281,3.0,-999.0,71,-99.99,,,-99.99,,2013-01-11 09:11:00,
2013-01-11 01:22:00,43.0,35.0,30.19,North,360,2.0,-999.0,72,-99.99,,,-99.99,,2013-01-11 09:22:00,
2013-01-11 01:32:00,43.0,35.0,30.19,North,360,2.0,-999.0,72,-99.99,,,-99.99,,2013-01-11 09:32:00,
2013-01-11 01:42:00,43.0,35.0,30.19,North,360,2.0,-999.0,72,-99.99,,,-99.99,,2013-01-11 09:42:00,
2013-01-11 01:52:00,43.0,35.0,30.19,North,360,2.0,-999.0,72,-99.99,,,-99.99,,2013-01-11 09:52:00,
2013-01-11 02:02:00,44.0,34.0,30.20,North,355,3.0,-999.0,67,-99.99,,,-99.99,,2013-01-11 10:02:00,
2013-01-11 02:12:00,44.0,34.0,30.20,North,355,3.0,-999.0,67,-99.99,,,-99.99,,2013-01-11 10:12:00,
2013-01-11 02:22:00,44.0,33.0,30.20,West,277,4.0,-999.0,66,-99.99,,,-99.99,,2013-01-11 10:22:00,
2013-01-11 02:32:00,44.0,33.0,30.20,West,277,4.0,-999.0,66,-99.99,,,-99.99,,2013-01-11 10:32:00,
2013-01-11 02:42:00,44.0,33.0,30.20,West,277,4.0,-999.0,66,-99.99,,,-99.99,,2013-01-11 10:42:00,
2013-01-11 02:52:00,43.0,32.0,30.20,WSW,237,3.0,-999.0,65,-99.99,,,-99.99,,2013-01-11 10:52:00,
2013-01-11 03:02:00,43.0,32.0,30.20,North,5,2.0,-999.0,66,-99.99,,,-99.99,,2013-01-11 11:02:00,
2013-01-11 03:12:00,43.0,32.0,30.20,North,5,2.0,-999.0,66,-99.99,,,-99.99,,2013-01-11 11:12:00,
2013-01-11 03:22:00,43.0,32.0,30.20,North,5,2.0,-999.0,66,-99.99,,,-99.99,,2013-01-11 11:22:00,
2013-01-11 03:32:00,43.0,32.0,30.20,West,275,3.0,-999.0,66,-99.99,,,-99.99,,2013-01-11 11:32:00,
2013-01-11 03:42:00,43.0,32.0,30.20,West,275,3.0,-999.0,66,-99.99,,,-99.99,,2013-01-11 11:42:00,
2013-01-11 03:52:00,43.0,35.0,30.20,WNW,286,2.0,-999.0,73,-99.99,,,-99.99,,2013-01-11 11:52:00,
2013-01-11 04:02:00,43.0,34.0,30.20,West,273,3.0,-999.0,71,-99.99,,,-99.99,,2013-01-11 12:02:00,
2013-01-11 04:12:00,43.0,34.0,30.20,West,273,3.0,-999.0,71,-99.99,,,-99.99,,2013-01-11 12:12:00,
2013-01-11 04:22:00,43.0,34.0,30.20,West,273,3.0,-999.0,71,-99.99,,,-99.99,,2013-01-11 12:22:00,
2013-01-11 04:32:00,43.0,34.0,30.20,West,273,3.0,-999.0,71,-99.99,,,-99.99,,2013-01-11 12:32:00,
2013-01-11 04:42:00,43.0,34.0,30.20,West,273,3.0,-999.0,71,-99.99,,,-99.99,,2013-01-11 12:42:00,
2013-01-11 04:52:00,43.0,34.0,30.20,NW,321,3.0,-999.0,69,-99.99,,,-99.99,,2013-01-11 12:52:00,
2013-01-11 05:02:00,43.0,34.0,30.19,West,265,4.0,-999.0,71,-99.99,,,-99.99,,2013-01-11 13:02:00,
2013-01-11 05:12:00,43.0,34.0,30.19,West,265,4.0,-999.0,71,-99.99,,,-99.99,,2013-01-11 13:12:00,
2013-01-11 05:22:00,44.0,34.0,30.20,West,276,6.0,-999.0,69,-99.99,,,-99.99,,2013-01-11 13:22:00,
2013-01-11 05:32:00,43.0,34.0,30.20,WSW,258,4.0,-999.0,70,-99.99,,,-99.99,,2013-01-11 13:32:00,
2013-01-11 05:42:00,43.0,34.0,30.20,WSW,258,4.0,-999.0,70,-99.99,,,-99.99,,2013-01-11 13:42:00,
2013-01-11 05:52:00,43.0,34.0,30.21,WNW,291,4.0,-999.0,69,-99.99,,,-99.99,,2013-01-11 13:52:00,
2013-01-11 06:03:00,43.0,34.0,30.21,WNW,291,4.0,-999.0,69,-99.99,,,-99.99,,2013-01-11 14:03:00,
2013-01-11 06:12:00,43.0,34.0,30.21,WNW,291,4.0,-999.0,69,-99.99,,,-99.99,,2013-01-11 14:12:00,
2013-01-11 06:22:00,43.0,34.0,30.21,WNW,291,4.0,-999.0,69,-99.99,,,-99.99,,2013-01-11 14:22:00,
2013-01-11 06:32:00,43.0,34.0,30.21,West,259,5.0,-999.0,69,-99.99,,,-99.99,,2013-01-11 14:32:00,
2013-01-11 06:43:00,43.0,34.0,30.22,WSW,246,5.0,-999.0,69,-99.99,,,-99.99,,2013-01-11 14:43:00,
2013-01-11 06:53:00,43.0,34.0,30.22,WSW,246,5.0,-999.0,69,-99.99,,,-99.99,,2013-01-11 14:53:00,
2013-01-11 07:03:00,43.0,34.0,30.22,SW,230,3.0,-999.0,69,-99.99,,,-99.99,,2013-01-11 15:03:00,
2013-01-11 07:12:00,43.0,32.0,30.22,WNW,289,5.0,-999.0,66,-99.99,,,-99.99,,2013-01-11 15:12:00,
2013-01-11 07:22:00,43.0,32.0,30.22,WNW,289,5.0,-999.0,66,-99.99,,,-99.99,,2013-01-11 15:22:00,
2013-01-11 07:32:00,43.0,32.0,30.22,SW,214,5.0,-999.0,66,-99.99,,,-99.99,,2013-01-11 15:32:00,
2013-01-11 07:42:00,43.0,32.0,30.22,SW,214,5.0,-999.0,66,-99.99,,,-99.99,,2013-01-11 15:42:00,
2013-01-11 07:52:00,43.0,31.0,30.22,SSW,195,3.0,-999.0,63,-99.99,,,-99.99,,2013-01-11 15:52:00,
2013-01-11 08:02:00,43.0,31.0,30.23,West,277,2.0,-999.0,62,-99.99,,,-99.99,,2013-01-11 16:02:00,
2013-01-11 08:12:00,43.0,31.0,30.23,WSW,252,4.0,-999.0,62,-99.99,,,-99.99,,2013-01-11 16:12:00,
2013-01-11 08:22:00,43.0,31.0,30.23,WSW,252,4.0,-999.0,62,-99.99,,,-99.99,,2013-01-11 16:22:00,
2013-01-11 08:32:00,44.0,31.0,30.23,NNW,345,4.0,-999.0,61,-99.99,,,-99.99,,2013-01-11 16:32:00,
2013-01-11 08:42:00,44.0,31.0,30.23,NNW,345,4.0,-999.0,61,-99.99,,,-99.99,,2013-01-11 16:42:00,
2013-01-11 08:52:00,44.0,31.0,30.24,WSW,247,3.0,-999.0,61,-99.99,,,-99.99,,2013-01-11 16:52:00,
2013-01-11 09:03:00,44.0,32.0,30.24,WNW,291,2.0,-999.0,62,-99.99,,,-99.99,,2013-01-11 17:03:00,
2013-01-11 09:12:00,45.0,32.0,30.24,West,278,3.0,-999.0,59,-99.99,,,-99.99,,2013-01-11 17:12:00,
2013-01-11 09:22:00,45.0,32.0,30.24,West,278,3.0,-999.0,59,-99.99,,,-99.99,,2013-01-11 17:22:00,
2013-01-11 09:33:00,45.0,32.0,30.24,West,263,3.0,-999.0,60,-99.99,,,-99.99,,2013-01-11 17:33:00,
2013-01-11 09:42:00,45.0,32.0,30.24,West,263,3.0,-999.0,60,-99.99,,,-99.99,,2013-01-11 17:42:00,
2013-01-11 09:52:00,46.0,32.0,30.24,West,275,3.0,-999.0,59,-99.99,,,-99.99,,2013-01-11 17:52:00,
2013-01-11 10:03:00,46.0,32.0,30.25,West,259,5.0,-999.0,58,-99.99,,,-99.99,,2013-01-11 18:03:00,
2013-01-11 10:12:00,46.0,32.0,30.25,West,259,5.0,-999.0,58,-99.99,,,-99.99,,2013-01-11 18:12:00,
2013-01-11 10:22:00,47.0,33.0,30.24,WNW,290,3.0,-999.0,58,-99.99,,,-99.99,,2013-01-11 18:22:00,
2013-01-11 10:32:00,47.0,33.0,30.24,North,350,3.0,-999.0,57,-99.99,,,-99.99,,2013-01-11 18:32:00,
2013-01-11 10:42:00,47.0,33.0,30.24,North,350,3.0,-999.0,57,-99.99,,,-99.99,,2013-01-11 18:42:00,
2013-01-11 10:53:00,48.0,33.0,30.24,NW,304,4.0,-999.0,55,-99.99,,,-99.99,,2013-01-11 18:53:00,
2013-01-11 11:02:00,48.0,33.0,30.24,NW,304,4.0,-999.0,55,-99.99,,,-99.99,,2013-01-11 19:02:00,
2013-01-11 11:12:00,48.0,33.0,30.24,NW,304,4.0,-999.0,55,-99.99,,,-99.99,,2013-01-11 19:12:00,
2013-01-11 11:22:00,49.0,33.0,30.23,WNW,284,4.0,-999.0,53,-99.99,,,-99.99,,2013-01-11 19:22:00,
2013-01-11 11:32:00,49.0,33.0,30.22,WNW,285,4.0,-999.0,54,-99.99,,,-99.99,,2013-01-11 19:32:00,
2013-01-11 11:42:00,49.0,33.0,30.22,WNW,285,4.0,-999.0,54,-99.99,,,-99.99,,2013-01-11 19:42:00,
2013-01-11 11:52:00,48.0,32.0,30.22,West,261,5.0,-999.0,54,-99.99,,,-99.99,,2013-01-11 19:52:00,
2013-01-11 12:02:00,49.0,33.0,30.21,West,267,5.0,-999.0,53,-99.99,,,-99.99,,2013-01-11 20:02:00,
2013-01-11 12:12:00,49.0,33.0,30.21,West,267,5.0,-999.0,53,-99.99,,,-99.99,,2013-01-11 20:12:00,
2013-01-11 12:22:00,49.0,33.0,30.21,West,276,8.0,-999.0,54,-99.99,,,-99.99,,2013-01-11 20:22:00,
2013-01-11 12:32:00,50.0,36.0,30.19,WNW,284,4.0,-999.0,58,-99.99,,,-99.99,,2013-01-11 20:32:00,
2013-01-11 12:43:00,50.0,36.0,30.19,WNW,284,4.0,-999.0,58,-99.99,,,-99.99,,2013-01-11 20:43:00,
2013-01-11 12:52:00,50.0,36.0,30.18,North,350,6.0,-999.0,59,-99.99,,,-99.99,,2013-01-11 20:52:00,
2013-01-11 13:02:00,49.0,35.0,30.18,SSW,213,8.0,-999.0,59,-99.99,,,-99.99,,2013-01-11 21:02:00,
2013-01-11 13:12:00,49.0,35.0,30.18,SSW,213,8.0,-999.0,59,-99.99,,,-99.99,,2013-01-11 21:12:00,
2013-01-11 13:22:00,51.0,37.0,30.18,North,360,4.0,-999.0,58,-99.99,,,-99.99,,2013-01-11 21:22:00,
2013-01-11 13:32:00,51.0,40.0,30.17,NW,314,5.0,-999.0,65,-99.99,,,-99.99,,2013-01-11 21:32:00,
2013-01-11 13:42:00,51.0,40.0,30.17,NW,314,5.0,-999.0,65,-99.99,,,-99.99,,2013-01-11 21:42:00,
2013-01-11 13:52:00,50.0,38.0,30.16,NE,34,6.0,-999.0,62,-99.99,,,-99.99,,2013-01-11 21:52:00,
2013-01-11 14:02:00,49.0,37.0,30.16,West,279,6.0,-999.0,64,-99.99,,,-99.99,,2013-01-11 22:02:00,
2013-01-11 14:12:00,49.0,37.0,30.16,West,279,6.0,-999.0,64,-99.99,,,-99.99,,2013-01-11 22:12:00,
2013-01-11 14:22:00,50.0,38.0,30.16,NW,317,3.0,-999.0,63,-99.99,,,-99.99,,2013-01-11 22:22:00,
2013-01-11 14:33:00,50.0,38.0,30.16,NW,306,3.0,-999.0,64,-99.99,,,-99.99,,2013-01-11 22:33:00,
2013-01-11 14:42:00,50.0,38.0,30.16,NW,306,3.0,-999.0,64,-99.99,,,-99.99,,2013-01-11 22:42:00,
2013-01-11 14:52:00,51.0,39.0,30.16,NNW,333,3.0,-999.0,64,-99.99,,,-99.99,,2013-01-11 22:52:00,
2013-01-11 15:02:00,50.0,38.0,30.16,NW,324,7.0,-999.0,64,-99.99,,,-99.99,,2013-01-11 23:02:00,
2013-01-11 15:12:00,50.0,38.0,30.16,NW,324,7.0,-999.0,64,-99.99,,,-99.99,,2013-01-11 23:12:00,
2013-01-11 15:22:00,50.0,38.0,30.16,NW,309,7.0,-999.0,64,-99.99,,,-99.99,,2013-01-11 23:22:00,
2013-01-11 15:32:00,51.0,40.0,30.16,North,355,4.0,-999.0,65,-99.99,,,-99.99,,2013-01-11 23:32:00,
2013-01-11 15:42:00,51.0,40.0,30.16,North,355,4.0,-999.0,65,-99.99,,,-99.99,,2013-01-11 23:42:00,
2013-01-11 15:53:00,50.0,39.0,30.15,North,360,4.0,-999.0,66,-99.99,,,-99.99,,2013-01-11 23:53:00,
2013-01-11 16:02:00,52.0,40.0,30.16,West,261,3.0,-999.0,64,-99.99,,,-99.99,,2013-01-12 00:02:00,
2013-01-11 16:12:00,49.0,39.0,30.16,WSW,250,7.0,-999.0,67,-99.99,,,-99.99,,2013-01-12 00:12:00,
2013-01-11 16:22:00,49.0,39.0,30.16,WSW,250,7.0,-999.0,67,-99.99,,,-99.99,,2013-01-12 00:22:00,
2013-01-11 16:32:00,47.0,39.0,30.16,WSW,244,7.0,-999.0,73,-99.99,,,-99.99,,2013-01-12 00:32:00,
2013-01-11 16:42:00,47.0,39.0,30.16,WSW,244,7.0,-999.0,73,-99.99,,,-99.99,,2013-01-12 00:42:00,
2013-01-11 16:52:00,46.0,40.0,30.16,SW,233,8.0,-999.0,79,-99.99,,,-99.99,,2013-01-12 00:52:00,
2013-01-11 17:02:00,45.0,41.0,30.16,North,360,2.0,-999.0,85,-99.99,,,-99.99,,2013-01-12 01:02:00,
2013-01-11 17:12:00,45.0,41.0,30.16,North,360,2.0,-999.0,85,-99.99,,,-99.99,,2013-01-12 01:12:00,
2013-01-11 17:22:00,45.0,41.0,30.16,NW,306,0.0,-999.0,87,-99.99,,,-99.99,,2013-01-12 01:22:00,
2013-01-11 17:32:00,45.0,41.0,30.15,NNW,332,1.0,-999.0,87,-99.99,,,-99.99,,2013-01-12 01:32:00,
2013-01-11 17:42:00,45.0,41.0,30.15,NNW,332,1.0,-999.0,87,-99.99,,,-99.99,,2013-01-12 01:42:00,
2013-01-11 17:52:00,44.0,40.0,30.15,WNW,286,2.0,-999.0,86,-99.99,,,-99.99,,2013-01-12 01:52:00,
2013-01-11 18:02:00,44.0,40.0,30.14,NW,314,1.0,-999.0,86,-99.99,,,-99.99,,2013-01-12 02:02:00,
2013-01-11 18:12:00,44.0,40.0,30.14,NW,314,1.0,-999.0,86,-99.99,,,-99.99,,2013-01-12 02:12:00,
2013-01-11 18:22:00,44.0,40.0,30.14,NNW,348,1.0,-999.0,85,-99.99,,,-99.99,,2013-01-12 02:22:00,
2013-01-11 18:32:00,43.0,39.0,30.14,North,349,1.0,-999.0,85,-99.99,,,-99.99,,2013-01-12 02:32:00,
2013-01-11 18:42:00,43.0,39.0,30.14,North,349,1.0,-999.0,85,-99.99,,,-99.99,,2013-01-12 02:42:00,
2013-01-11 18:52:00,44.0,40.0,30.14,NNW,346,0.0,-999.0,85,-99.99,,,-99.99,,2013-01-12 02:52:00,
2013-01-11 19:02:00,44.0,40.0,30.14,NW,326,1.0,-999.0,86,-99.99,,,-99.99,,2013-01-12 03:02:00,
2013-01-11 19:12:00,44.0,40.0,30.14,NW,326,1.0,-999.0,86,-99.99,,,-99.99,,2013-01-12 03:12:00,
2013-01-11 19:22:00,44.0,40.0,30.14,NW,310,1.0,-999.0,85,-99.99,,,-99.99,,2013-01-12 03:22:00,
2013-01-11 19:32:00,44.0,40.0,30.14,NW,306,1.0,-999.0,87,-99.99,,,-99.99,,2013-01-12 03:32:00,
2013-01-11 19:42:00,44.0,40.0,30.14,NW,306,1.0,-999.0,87,-99.99,,,-99.99,,2013-01-12 03:42:00,
2013-01-11 19:52:00,44.0,41.0,30.13,NNE,12,2.0,-999.0,88,-99.99,,,-99.99,,2013-01-12 03:52:00,
2013-01-11 20:02:00,43.0,40.0,30.13,NW,315,1.0,-999.0,88,-99.99,,,-99.99,,2013-01-12 04:02:00,
2013-01-11 20:12:00,43.0,40.0,30.13,NW,315,1.0,-999.0,88,-99.99,,,-99.99,,2013-01-12 04:12:00,
2013-01-11 20:22:00,43.0,40.0,30.13,NNW,327,1.0,-999.0,88,-99.99,,,-99.99,,2013-01-12 04:22:00,
2013-01-11 20:32:00,43.0,40.0,30.12,North,355,2.0,-999.0,88,-99.99,,,-99.99,,2013-01-12 04:32:00,
2013-01-11 20:42:00,43.0,40.0,30.12,North,355,2.0,-999.0,88,-99.99,,,-99.99,,2013-01-12 04:42:00,
2013-01-11 20:52:00,43.0,40.0,30.12,NNW,344,2.0,-999.0,89,-99.99,,,-99.99,,2013-01-12 04:52:00,
2013-01-11 21:03:00,42.0,39.0,30.12,NNW,330,2.0,-999.0,88,-99.99,,,-99.99,,2013-01-12 05:03:00,
2013-01-11 21:12:00,42.0,39.0,30.12,NNW,330,2.0,-999.0,88,-99.99,,,-99.99,,2013-01-12 05:12:00,
2013-01-11 21:22:00,42.0,39.0,30.13,NW,325,1.0,-999.0,89,-99.99,,,-99.99,,2013-01-12 05:22:00,
2013-01-11 21:32:00,42.0,39.0,30.13,WNW,302,2.0,-999.0,89,-99.99,,,-99.99,,2013-01-12 05:32:00,
2013-01-11 21:42:00,42.0,39.0,30.13,WNW,302,2.0,-999.0,89,-99.99,,,-99.99,,2013-01-12 05:42:00,
2013-01-11 21:52:00,42.0,39.0,30.13,North,350,1.0,-999.0,89,-99.99,,,-99.99,,2013-01-12 05:52:00,
2013-01-11 22:02:00,42.0,39.0,30.13,West,266,2.0,-999.0,88,-99.99,,,-99.99,,2013-01-12 06:02:00,
2013-01-11 22:12:00,42.0,39.0,30.13,West,266,2.0,-999.0,88,-99.99,,,-99.99,,2013-01-12 06:12:00,
2013-01-11 22:22:00,42.0,38.0,30.14,West,275,2.0,-999.0,86,-99.99,,,-99.99,,2013-01-12 06:22:00,
2013-01-11 22:32:00,42.0,38.0,30.14,West,275,2.0,-999.0,86,-99.99,,,-99.99,,2013-01-12 06:32:00,
2013-01-11 22:42:00,42.0,38.0,30.14,West,275,2.0,-999.0,86,-99.99,,,-99.99,,2013-01-12 06:42:00,
2013-01-11 22:52:00,42.0,38.0,30.13,North,360,1.0,-999.0,86,-99.99,,,-99.99,,2013-01-12 06:52:00,
2013-01-11 23:02:00,42.0,38.0,30.13,West,279,2.0,-999.0,86,-99.99,,,-99.99,,2013-01-12 07:02:00,
2013-01-11 23:12:00,42.0,37.0,30.13,North,355,2.0,-999.0,83,-99.99,,,-99.99,,2013-01-12 07:12:00,
2013-01-11 23:22:00,42.0,37.0,30.13,North,355,2.0,-999.0,83,-99.99,,,-99.99,,2013-01-12 07:22:00,
2013-01-11 23:32:00,42.0,37.0,30.14,North,355,1.0,-999.0,82,-99.99,,,-99.99,,2013-01-12 07:32:00,
2013-01-11 23:42:00,42.0,37.0,30.14,North,355,1.0,-999.0,82,-99.99,,,-99.99,,2013-01-12 07:42:00,
2013-01-11 23:52:00,43.0,37.0,30.13,NNE,22,2.0,-999.0,79,-99.99,,,-99.99,,2013-01-12 07:52:00,